Temperature
14 15 15 16 19 20 21 22 21 20 20 20 20 21 22 23 23 22 17 17 17 16 16 16 16 16 16 16 16 16 16 16 16 16 16 16 16 15 15 15 15 15 15 15 15 15 15 15 15
14 14 15 17 19 20 21 22 21 21 20 18 18 19 20 21 19 17 17 17 16 16 16 16 16 15 15 16 16 16 16 16 16 16 16 16 15 15 15 15 15 15 15 15 15 15 15 15 15
13 14 15 18 19 21 22 21 21 20 18 18 19 19 20 19 17 17 17 16 16 16 15 15 15 15 15 15 15 15 16 16 16 16 15 15 15 15 15 15 15 15 15 15 15 15 15 15 15
13 14 15 18 19 20 21 21 19 19 18 17 19 19 18 16 16 16 17 16 16 15 15 15 15 15 15 15 15 15 15 16 16 16 15 15 15 15 15 15 15 15 15 15 15 15 15 15 15
13 15 17 17 19 20 19 18 17 19 19 18 18 19 18 16 16 16 16 16 15 15 15 15 15 15 15 15 15 15 15 15 15 15 15 15 15 15 15 15 15 15 15 15 15 15 15 15 14
13 15 17 18 19 19 18 17 17 18 19 18 18 19 17 15 16 16 15 15 15 15 15 14 15 14 15 15 15 15 15 15 15 15 15 15 15 15 15 15 15 14 14 14 14 15 15 14 14
14 15 17 18 18 18 18 16 17 18 18 18 17 18 17 15 15 15 15 14 14 14 14 14 14 14 14 14 14 15 15 15 14 15 15 15 15 15 14 14 14 14 14 14 14 14 14 14 14
12 15 16 17 17 18 17 15 16 17 17 16 16 18 17 14 14 14 14 14 14 14 14 14 14 14 14 14 14 14 14 14 14 14 14 14 14 14 14 14 14 14 14 14 14 14 14 14 14
11 14 15 16 16 17 15 15 15 14 15 14 14 15 14 14 14 13 13 13 13 13 13 13 13 13 13 13 13 13 14 14 14 14 14 14 14 14 14 14 14 14 14 14 14 14 14 14 14
12 13 15 15 15 15 14 14 14 14 15 14 13 13 13 13 13 13 13 13 13 13 13 13 13 13 13 13 13 13 13 13 13 13 13 13 13 13 13 13 13 13 13 13 13 13 13 13 13
11 13 13 13 12 12 13 13 13 14 15 14 13 12 12 12 12 12 12 12 13 13 13 13 13 13 13 13 13 13 13 13 13 13 13 13 13 13 13 13 13 13 13 13 13 13 13 13 13
11 11 11 11 10 11 12 12 12 13 13 12 12 12 11 12 12 12 12 12 12 12 12 13 12 13 13 13 13 13 13 13 13 13 13 13 13 13 13 13 12 12 12 12 12 13 12 12 12
10 10 10 10 9 10 10 11 11 11 11 11 11 11 11 11 11 11 11 11 12 12 12 12 12 12 12 12 12 12 12 12 12 13 13 13 13 12 12 12 12 12 12 12 12 12 12 12 12
9 9 9 9 9 9 10 10 10 10 10 10 10 10 10 10 10 11 11 11 11 11 12 12 12 12 12 12 12 12 12 12 12 12 12 12 12 12 12 12 12 12 12 12 12 12 12 12 12
8 9 9 9 9 9 10 10 10 9 9 9 9 9 9 9 10 10 10 11 11 11 11 12 12 12 12 12 12 12 12 12 12 12 12 12 12 12 12 12 12 12 12 12 12 11 11 11 11
8 8 9 9 9 9 9 10 10 8 9 9 9 9 9 9 9 9 10 10 10 11 11 11 11 11 11 12 12 12 12 12 12 12 12 12 12 12 12 12 12 12 11 11 11 11 11 11 11
7 8 8 9 9 9 9 9 9 7 8 9 8 8 8 8 8 9 9 10 10 10 11 11 11 11 11 11 11 11 11 11 11 12 11 11 12 12 11 11 11 11 11 11 11 11 11 11 10
7 8 8 9 9 8 8 8 8 7 7 8 8 8 8 8 8 8 9 9 10 10 10 10 11 11 11 11 11 11 11 11 11 11 11 11 11 11 11 11 11 11 11 11 11 10 10 10 10
7 7 8 8 8 7 7 7 8 7 7 7 7 7 7 7 7 8 8 9 9 9 10 10 10 10 10 10 10 10 11 11 11 11 11 11 11 11 11 11 11 11 10 10 10 10 10 10 10
6 6 7 7 7 7 7 7 7 7 7 7 7 6 6 6 7 7 8 8 8 9 9 10 10 10 10 10 10 10 10 10 10 10 11 11 11 11 11 11 11 10 10 10 10 10 10 9 9
6 6 6 6 6 7 6 7 7 7 6 6 6 6 6 6 6 6 7 7 8 8 8 9 9 10 10 10 10 10 10 10 10 10 10 10 10 10 11 10 10 10 10 10 10 9 9 9 9
5 6 6 5 6 6 7 7 7 7 6 6 5 5 5 5 5 5 6 6 7 7 8 8 9 9 9 9 10 10 10 10 10 10 10 10 10 10 10 10 10 10 10 9 9 9 9 9 8
4 5 5 5 5 5 6 6 7 6 6 6 5 5 4 4 4 4 5 5 6 7 7 8 8 9 9 9 9 9 9 10 10 10 10 10 10 10 10 10 10 10 9 9 9 9 9 8 8
4 4 5 5 5 5 6 6 6 6 5 5 5 4 4 3 4 4 4 5 6 6 7 7 8 8 8 9 9 9 9 9 9 9 9 9 9 9 9 9 9 9 9 9 9 9 8 8 8
3 4 4 4 4 5 5 5 5 5 4 4 4 3 3 3 2 3 3 4 5 5 6 7 7 8 8 8 8 9 9 9 9 9 9 9 9 9 9 9 9 9 9 9 9 8 8 8 8
2 3 4 4 5 5 4 4 5 4 3 3 3 3 2 2 2 2 2 3 4 5 5 6 7 7 7 8 8 8 8 8 8 9 9 8 9 9 9 9 9 9 9 8 8 8 8 8 8
2 3 3 3 4 4 4 4 4 3 3 3 2 2 2 1 1 1 2 3 3 4 4 5 6 6 7 7 7 8 8 8 8 8 8 8 8 8 8 9 9 8 8 8 8 8 8 8 7
2 2 2 3 3 4 4 4 4 2 2 2 2 2 2 1 1 1 2 2 3 3 4 4 5 5 6 6 7 7 7 7 8 8 8 8 8 8 8 8 8 8 8 8 8 7 7 7 7
1 1 1 2 3 4 4 4 2 2 2 1 2 1 1 1 1 1 1 2 2 3 3 4 4 5 5 6 6 6 7 7 7 7 7 7 7 7 7 7 8 8 8 7 7 7 7 7 7
-0 -0 0 1 1 2 3 3 1 1 1 1 0 -0 0 0 0 1 1 1 2 2 3 3 4 4 5 5 5 6 6 6 7 7 7 7 7 7 7 7 7 7 7 7 7 7 7 7 7
Wind_Speed
2 2 2 3 5 7 14 10 6 6 5 5 4 5 5 6 3 1 4 10 13 16 17 19 18 17 16 16 16 15 15 15 15 14 14 14 14 14 13 14 14 14 14 15 15 16 16 16 16
2 1 3 4 7 12 12 11 11 8 4 4 5 5 4 5 0 2 5 11 14 16 17 17 18 17 17 16 16 15 15 14 15 14 14 14 14 13 13 13 13 14 14 14 15 15 15 15 15
1 1 4 5 9 15 11 7 9 6 5 4 5 4 3 2 2 3 6 13 14 15 16 17 17 17 17 16 15 15 15 15 15 14 14 14 14 13 13 13 13 14 14 14 14 14 15 15 14
3 3 3 8 16 15 11 4 3 6 6 5 5 4 2 1 1 3 9 14 15 15 15 17 16 16 16 16 15 15 15 15 15 14 14 14 14 13 13 13 14 14 14 14 14 14 14 14 14
2 4 8 12 18 13 9 6 4 7 6 6 6 4 3 2 2 6 11 14 14 14 14 17 16 15 15 16 15 15 15 15 14 14 14 13 13 13 13 14 14 14 14 14 14 14 14 14 13
4 5 10 17 18 12 9 8 7 8 7 6 6 5 2 2 4 7 10 12 13 13 13 15 15 15 15 15 15 15 14 14 14 14 13 13 12 13 14 14 14 14 14 14 14 14 14 14 13
6 7 13 16 15 13 9 7 9 9 9 7 5 5 3 4 4 7 10 11 11 12 12 13 14 14 14 14 14 14 14 14 13 13 13 13 13 13 13 13 13 13 13 14 14 14 14 14 13
4 5 11 13 14 13 7 6 5 8 7 3 4 5 4 3 5 7 9 9 10 10 11 11 12 12 12 12 13 13 13 13 13 13 14 14 14 13 12 12 12 12 13 13 13 13 13 13 13
4 8 14 14 12 8 5 6 4 3 4 3 3 2 1 5 7 8 8 9 9 9 9 10 10 10 11 11 12 12 12 12 13 13 14 13 11 11 11 11 12 12 12 13 13 13 13 13 12
7 12 15 9 7 5 4 5 4 4 6 5 4 1 2 6 7 9 10 11 12 11 10 9 10 10 10 10 11 10 9 10 10 11 11 9 9 9 10 12 12 12 12 13 13 13 12 9 9
7 11 10 7 6 5 5 5 5 7 8 7 6 5 5 6 6 8 9 10 12 12 10 9 9 10 9 8 8 7 7 8 9 10 10 9 9 9 9 9 10 10 11 10 11 10 7 7 7
7 9 8 6 4 5 6 5 6 9 8 5 5 5 7 8 8 8 8 8 8 10 10 9 9 9 9 8 7 7 7 6 7 8 10 9 7 7 7 7 8 8 7 7 7 6 7 7 7
9 8 8 7 5 5 6 8 8 9 8 6 4 5 7 8 8 7 6 6 7 8 9 9 9 9 9 8 7 7 7 7 7 7 9 9 7 7 7 7 7 7 7 7 6 7 7 7 6
5 6 6 5 6 6 7 8 7 9 6 5 5 7 8 8 8 7 6 6 7 8 8 8 9 9 9 8 7 7 7 7 7 7 9 9 8 8 7 7 6 6 7 7 7 7 6 6 6
4 5 6 7 7 5 5 7 9 9 7 6 6 7 8 8 7 8 7 7 7 7 7 8 8 9 9 9 8 7 7 8 7 7 8 9 9 9 8 7 6 6 7 7 7 7 6 5 5
4 5 7 5 5 5 7 10 7 6 6 7 6 7 7 7 8 8 7 7 7 7 7 7 7 8 9 8 8 7 7 8 7 8 8 10 10 10 9 7 7 8 8 7 6 6 5 5 5
5 8 9 6 5 4 7 8 5 4 5 6 6 6 6 6 6 6 7 7 7 7 7 7 7 8 8 8 7 7 7 7 7 8 7 9 10 10 9 7 7 9 7 6 6 5 5 5 5
8 10 10 9 4 5 7 8 6 5 5 6 5 5 6 6 7 6 6 6 6 6 7 8 7 7 7 7 6 6 6 6 7 7 7 9 10 10 9 7 8 8 6 6 6 6 5 5 4
9 11 12 9 5 6 8 9 7 6 5 6 6 5 6 6 6 5 5 6 6 6 7 8 8 8 7 6 7 7 7 6 6 6 7 9 10 10 9 7 8 8 7 7 8 7 7 5 5
9 10 10 7 3 5 7 10 8 6 7 7 7 6 6 6 6 5 5 5 5 6 7 7 7 8 8 7 8 6 7 6 6 6 7 8 9 10 9 9 8 8 7 8 8 8 6 5 5
10 11 9 7 5 5 6 9 8 6 6 6 6 6 6 5 5 5 4 4 5 5 6 6 7 7 8 8 7 6 6 5 5 6 6 7 9 10 9 9 8 8 8 8 9 9 8 6 5
9 8 8 8 6 5 6 7 6 5 5 5 6 5 5 5 4 3 3 3 4 4 4 5 6 7 7 8 8 10 9 8 7 7 6 7 9 9 9 9 9 8 7 8 9 9 8 8 6
6 6 8 9 8 6 7 7 6 3 6 7 6 5 5 4 3 2 2 2 3 3 3 3 5 5 6 7 9 10 9 7 6 7 7 7 8 9 9 9 9 8 7 8 8 8 9 8 8
4 3 5 6 6 7 8 8 6 4 6 6 5 4 4 3 2 2 1 1 1 1 2 2 4 5 5 6 8 8 9 9 8 9 8 7 6 6 8 9 8 8 8 8 8 8 9 9 9
2 1 3 4 5 6 4 5 5 2 3 4 4 3 2 1 2 2 2 1 0 1 1 2 4 4 5 5 6 7 8 9 9 9 8 8 7 6 8 8 8 8 8 8 8 8 8 8 9
4 4 4 4 5 4 3 6 3 2 3 3 2 1 1 2 2 2 2 1 1 1 1 2 3 4 4 5 5 6 6 5 6 7 7 7 6 7 8 9 9 9 8 8 8 7 7 7 8
3 4 5 4 3 4 4 4 3 4 5 5 3 3 3 3 3 2 2 1 1 1 1 1 2 3 4 4 5 5 5 5 5 5 6 6 5 5 7 8 8 8 8 8 8 6 7 7 8
3 3 2 3 3 4 5 5 3 5 6 5 4 3 3 3 4 3 2 2 2 1 1 1 1 2 2 3 4 3 5 5 5 5 5 6 6 6 7 7 7 7 8 8 8 7 7 7 7
4 2 2 2 3 4 4 2 3 5 5 5 5 4 4 4 3 2 2 3 3 3 2 2 2 1 1 1 3 3 4 5 5 5 5 5 5 6 6 7 7 8 8 8 8 8 8 8 7
3 4 3 3 3 3 4 2 5 6 5 6 6 6 5 4 3 2 3 3 3 3 2 2 2 1 1 1 1 2 3 4 5 5 4 4 5 5 6 6 7 7 7 7 8 8 8 8 8
Wind_Direction
326 305 236 207 206 224 235 224 213 193 198 204 195 203 211 205 205 138 93 152 148 150 151 154 152 149 145 142 139 137 135 135 134 132 130 128 126 123 120 117 115 113 111 110 108 104 102 101 101
302 251 203 203 222 226 232 223 217 210 178 166 186 208 212 214 228 93 133 151 151 150 151 154 150 148 145 143 141 140 138 137 136 135 132 130 128 124 121 119 116 114 112 110 109 108 106 104 103
208 250 209 203 223 230 229 207 220 207 189 190 186 209 224 195 151 140 141 152 152 150 152 149 147 148 146 145 143 142 142 140 137 135 133 130 128 124 120 117 114 114 112 111 110 110 109 107 104
202 186 208 224 228 230 239 212 190 186 189 204 199 187 186 84 125 143 147 155 153 152 152 149 149 147 147 146 145 144 144 142 139 137 134 131 129 126 122 118 114 113 113 113 112 112 111 109 106
215 204 211 228 235 233 233 239 211 207 193 193 202 211 190 122 124 142 153 157 154 153 152 152 150 146 146 148 147 146 144 143 141 138 136 134 131 129 126 122 117 115 115 114 115 115 114 111 108
194 210 222 231 232 232 230 226 221 225 218 204 207 217 189 127 134 147 154 158 153 150 150 152 149 147 145 147 149 147 145 142 141 138 136 134 130 129 128 124 121 119 118 116 116 117 116 113 111
211 214 232 238 238 234 229 216 222 224 223 216 213 212 175 144 134 149 155 156 152 151 151 153 156 151 145 141 144 146 145 143 139 137 135 132 128 126 128 125 123 120 118 117 116 116 115 113 111
225 223 235 236 237 238 219 209 232 230 231 218 211 214 196 157 140 149 151 153 154 157 157 156 158 159 156 151 140 139 143 140 135 133 131 129 125 124 123 126 123 122 120 119 118 117 115 113 111
208 224 232 231 236 236 206 216 229 253 219 211 220 264 3 136 149 154 154 157 161 165 164 163 161 160 159 156 148 141 139 138 137 136 133 138 140 136 133 124 123 123 122 121 121 120 116 116 113
208 227 234 238 246 244 223 232 226 216 221 230 229 270 104 147 164 170 173 174 174 175 174 171 168 164 160 156 155 156 152 154 155 153 151 150 145 138 133 125 122 124 123 123 122 121 124 128 127
215 234 243 246 258 266 250 248 241 231 235 234 224 198 163 167 175 184 189 188 185 181 177 176 173 168 164 157 158 157 155 157 161 159 158 153 145 140 140 139 136 132 133 132 131 133 134 134 129
230 242 247 254 266 265 257 256 255 245 255 276 247 205 188 191 192 193 197 197 192 187 182 178 173 171 168 162 159 158 156 156 158 163 163 158 148 148 149 146 148 146 145 141 142 137 134 130 128
235 247 250 255 272 274 275 259 261 263 282 285 255 211 200 205 208 206 200 200 198 193 188 182 177 173 168 162 159 160 160 161 159 163 166 163 155 153 151 148 150 150 147 149 148 142 136 132 129
244 250 255 259 264 265 262 268 267 274 281 261 233 223 216 212 214 213 208 205 203 201 193 187 181 178 171 167 165 163 164 162 162 164 168 169 162 156 153 150 149 151 152 151 151 144 136 132 128
242 251 257 250 252 251 253 259 257 268 269 252 239 230 225 221 218 218 216 214 211 203 194 191 186 182 178 173 170 166 166 166 166 165 171 170 167 162 158 153 152 153 152 147 145 139 135 130 129
222 232 244 242 242 244 230 249 266 274 253 251 246 235 229 229 225 225 224 220 217 209 195 192 188 185 183 177 173 168 169 169 169 168 172 174 170 167 162 157 155 154 153 151 148 149 145 140 139
215 236 243 248 229 234 229 255 281 286 255 251 249 239 231 233 237 233 226 222 215 210 196 190 186 186 185 178 175 173 171 171 170 169 171 175 172 171 165 160 155 157 155 154 151 154 155 150 144
233 239 241 243 238 239 239 253 277 281 266 260 259 253 245 241 243 238 229 224 215 209 199 189 185 184 180 175 174 171 174 175 171 170 175 177 174 173 167 160 159 159 158 159 159 156 150 148 145
247 243 246 253 260 251 245 256 274 279 270 259 259 262 262 259 255 250 234 223 212 204 197 191 184 184 178 181 182 182 184 181 177 174 177 179 175 172 168 161 161 165 168 168 164 158 154 150 149
251 245 251 258 269 254 250 257 265 270 263 257 256 259 261 268 269 261 246 225 211 203 201 194 191 189 188 189 187 186 181 183 179 175 179 182 176 173 173 170 168 171 171 170 170 164 163 163 168
255 237 243 253 276 239 248 257 250 267 273 273 270 267 266 266 262 249 239 225 218 212 207 199 196 195 192 185 179 172 171 172 178 184 185 188 183 178 176 175 174 175 176 179 179 178 175 175 181
257 245 248 244 234 233 229 252 249 267 285 297 288 276 270 267 266 254 240 238 234 225 212 201 194 191 190 184 181 182 184 186 188 185 187 188 187 184 181 180 178 177 181 186 185 187 186 182 185
270 272 239 229 225 241 233 241 262 262 279 285 284 281 266 267 272 267 252 252 240 224 200 189 182 181 187 188 185 186 191 191 182 179 183 187 186 186 183 185 183 182 186 190 190 191 193 192 193
294 249 208 209 213 232 234 230 263 261 265 274 279 283 268 272 296 310 295 295 223 186 161 162 169 174 179 185 186 189 189 186 180 180 184 187 186 186 189 189 190 190 190 192 195 199 201 202 201
328 191 200 201 213 234 215 222 255 303 297 278 272 275 267 285 333 334 339 343 91 103 132 148 162 172 179 183 189 191 191 188 189 188 190 189 188 192 195 194 196 197 197 196 196 201 206 207 205
254 231 230 234 232 236 204 232 251 357 333 324 315 307 27 25 3 342 334 348 80 91 108 138 157 173 181 183 189 192 192 192 195 196 194 196 195 193 194 198 199 198 197 197 196 200 206 208 210
267 239 260 270 265 242 220 239 261 348 356 2 2 3 6 7 351 343 346 8 54 79 106 123 156 172 181 185 185 191 190 191 194 195 200 200 199 194 192 194 196 197 197 198 197 202 204 208 212
327 286 239 238 243 241 237 234 286 329 332 347 351 343 339 342 341 346 354 14 14 17 44 73 114 141 170 187 187 193 195 195 197 196 199 199 196 193 192 195 197 198 198 199 201 205 207 208 212
355 340 289 243 260 251 245 246 359 331 331 335 341 342 339 337 333 352 16 19 17 19 29 43 66 88 127 179 186 190 196 197 197 197 201 200 198 195 195 196 199 199 200 200 201 203 204 208 210
10 357 327 253 259 264 259 293 14 358 355 356 354 348 342 336 341 20 30 27 21 14 14 22 29 40 54 184 186 193 205 199 194 196 202 199 198 195 197 197 200 201 201 201 202 202 201 206 209
Height
1514 1515 1518 1521 1520 1515 1507 1502 1505 1507 1509 1510 1511 1511 1509 1508 1510 1515 1514 1513 1515 1518 1521 1524 1527 1530 1532 1534 1536 1538 1540 1541 1543 1544 1545 1547 1548 1549 1550 1551 1552 1552 1553 1554 1555 1555 1556 1556 1556
1514 1516 1519 1520 1514 1510 1503 1500 1504 1504 1507 1510 1511 1511 1510 1510 1511 1512 1511 1512 1515 1518 1521 1524 1527 1530 1532 1534 1536 1538 1540 1542 1543 1545 1546 1547 1549 1550 1551 1552 1553 1553 1554 1555 1556 1557 1557 1558 1558
1514 1516 1519 1515 1509 1501 1497 1499 1501 1505 1508 1509 1510 1510 1510 1510 1511 1511 1511 1512 1516 1519 1521 1524 1527 1530 1532 1535 1537 1538 1540 1542 1543 1545 1546 1548 1549 1550 1551 1552 1553 1554 1555 1556 1557 1558 1558 1559 1560
1514 1517 1518 1512 1502 1497 1497 1499 1503 1505 1508 1509 1509 1509 1510 1510 1510 1510 1510 1513 1516 1519 1522 1524 1527 1530 1532 1534 1537 1538 1540 1542 1543 1545 1546 1548 1549 1551 1552 1553 1554 1555 1556 1557 1558 1559 1560 1560 1561
1514 1515 1511 1505 1498 1496 1500 1503 1505 1503 1504 1507 1508 1507 1508 1508 1508 1509 1511 1513 1516 1519 1522 1524 1527 1530 1532 1534 1536 1538 1540 1542 1544 1545 1547 1548 1550 1551 1552 1554 1555 1556 1557 1558 1559 1560 1561 1562 1562
1514 1511 1505 1497 1493 1496 1500 1503 1504 1503 1504 1506 1507 1506 1507 1508 1508 1509 1511 1513 1516 1518 1521 1524 1527 1530 1532 1534 1536 1538 1540 1542 1543 1545 1547 1548 1550 1551 1553 1554 1555 1556 1558 1559 1560 1561 1562 1563 1563
1511 1506 1498 1492 1491 1494 1498 1502 1502 1501 1502 1504 1505 1505 1506 1507 1508 1509 1511 1514 1516 1518 1521 1523 1526 1529 1532 1534 1536 1538 1540 1541 1543 1545 1547 1548 1550 1551 1553 1554 1556 1557 1558 1559 1560 1561 1562 1563 1564
1508 1505 1497 1493 1492 1492 1497 1501 1501 1502 1501 1503 1505 1504 1505 1506 1507 1508 1511 1513 1516 1518 1520 1523 1526 1528 1531 1533 1535 1537 1539 1541 1543 1545 1547 1548 1550 1551 1553 1554 1556 1557 1558 1559 1560 1562 1563 1564 1565
1507 1505 1493 1491 1492 1492 1498 1499 1501 1501 1501 1502 1503 1504 1504 1504 1506 1508 1510 1513 1515 1517 1520 1522 1524 1527 1529 1532 1534 1536 1538 1540 1542 1544 1546 1548 1550 1552 1553 1554 1556 1557 1558 1559 1561 1562 1563 1564 1565
1504 1497 1490 1493 1495 1495 1498 1499 1500 1500 1500 1501 1501 1501 1502 1503 1505 1507 1508 1510 1513 1515 1518 1521 1523 1525 1528 1530 1532 1535 1537 1539 1542 1544 1545 1547 1549 1551 1552 1554 1555 1557 1558 1559 1561 1562 1564 1565 1566
1500 1494 1494 1496 1498 1498 1498 1499 1500 1499 1497 1499 1500 1500 1501 1502 1504 1505 1507 1509 1511 1514 1516 1519 1521 1524 1526 1528 1531 1533 1536 1538 1540 1542 1544 1546 1548 1550 1552 1553 1555 1556 1558 1559 1561 1562 1564 1565 1566
1499 1497 1497 1497 1499 1498 1498 1498 1498 1498 1497 1498 1499 1499 1499 1500 1502 1503 1505 1508 1510 1512 1514 1517 1519 1522 1524 1527 1529 1531 1534 1536 1538 1541 1543 1545 1546 1548 1550 1552 1554 1556 1557 1559 1560 1562 1563 1565 1566
1497 1496 1498 1498 1499 1498 1498 1497 1497 1496 1497 1497 1497 1497 1497 1498 1500 1502 1504 1506 1507 1509 1512 1514 1517 1520 1522 1525 1527 1530 1532 1534 1536 1539 1541 1543 1545 1547 1549 1551 1553 1554 1556 1558 1559 1561 1562 1564 1565
1497 1497 1497 1497 1497 1497 1497 1495 1496 1494 1495 1495 1495 1495 1495 1496 1498 1500 1501 1503 1505 1507 1509 1512 1515 1517 1520 1523 1525 1527 1530 1532 1535 1537 1539 1541 1543 1545 1547 1549 1551 1553 1555 1557 1558 1560 1562 1563 1565
1497 1497 1495 1494 1495 1495 1495 1493 1493 1493 1493 1493 1492 1493 1493 1494 1495 1496 1498 1500 1502 1504 1506 1509 1512 1515 1517 1520 1523 1525 1528 1530 1532 1535 1537 1539 1542 1544 1545 1547 1549 1551 1553 1555 1557 1559 1561 1562 1564
1495 1494 1491 1490 1492 1493 1495 1488 1490 1491 1491 1490 1490 1490 1491 1492 1492 1494 1495 1497 1499 1501 1503 1506 1509 1512 1514 1517 1520 1523 1525 1528 1530 1533 1535 1537 1539 1542 1544 1546 1547 1549 1552 1554 1556 1558 1559 1561 1563
1492 1489 1487 1487 1489 1490 1490 1487 1489 1490 1489 1488 1488 1488 1489 1489 1490 1491 1492 1494 1496 1498 1500 1503 1506 1508 1511 1514 1517 1520 1523 1525 1528 1530 1532 1535 1537 1539 1542 1544 1546 1548 1550 1552 1554 1556 1558 1560 1562
1487 1485 1484 1484 1486 1488 1488 1487 1488 1489 1488 1487 1487 1486 1486 1486 1487 1488 1489 1491 1492 1494 1497 1499 1502 1505 1508 1511 1514 1516 1519 1522 1525 1527 1529 1532 1535 1537 1539 1542 1544 1546 1548 1550 1552 1554 1556 1558 1560
1487 1485 1482 1483 1486 1488 1486 1485 1486 1486 1486 1485 1485 1485 1484 1484 1484 1485 1486 1487 1489 1491 1493 1496 1499 1501 1504 1507 1510 1513 1516 1519 1522 1524 1527 1529 1532 1534 1537 1539 1541 1543 1545 1548 1550 1552 1554 1556 1558
1487 1484 1482 1483 1486 1487 1484 1483 1483 1484 1483 1483 1483 1482 1482 1481 1481 1481 1482 1484 1485 1487 1489 1492 1495 1497 1501 1504 1507 1510 1513 1516 1519 1522 1524 1526 1528 1532 1534 1537 1539 1541 1543 1545 1548 1550 1552 1554 1556
1485 1483 1482 1484 1484 1484 1483 1478 1477 1479 1480 1480 1480 1479 1480 1479 1479 1479 1479 1480 1481 1483 1485 1488 1491 1494 1497 1500 1504 1507 1510 1513 1515 1518 1521 1524 1526 1529 1531 1534 1536 1538 1540 1543 1545 1547 1549 1551 1554
1483 1482 1483 1484 1483 1479 1480 1473 1470 1475 1475 1476 1476 1476 1477 1477 1477 1477 1477 1477 1478 1480 1481 1484 1487 1490 1493 1497 1500 1503 1506 1508 1511 1514 1518 1521 1523 1526 1528 1531 1533 1535 1538 1540 1542 1544 1547 1549 1550
1485 1484 1482 1481 1480 1480 1478 1476 1468 1472 1473 1473 1475 1475 1475 1475 1475 1474 1475 1475 1476 1477 1479 1481 1484 1486 1489 1493 1496 1500 1503 1506 1509 1512 1515 1517 1520 1522 1525 1528 1530 1532 1534 1537 1539 1541 1543 1545 1547
1487 1483 1480 1479 1478 1479 1474 1474 1468 1470 1472 1472 1474 1474 1473 1473 1473 1472 1473 1473 1474 1474 1475 1478 1481 1483 1486 1489 1493 1496 1499 1502 1505 1508 1511 1514 1516 1519 1522 1524 1527 1529 1531 1533 1536 1538 1540 1542 1544
1487 1483 1478 1475 1474 1470 1472 1474 1472 1472 1474 1474 1473 1473 1472 1472 1471 1470 1470 1470 1471 1472 1473 1475 1478 1480 1483 1486 1489 1492 1496 1499 1502 1505 1508 1510 1513 1515 1517 1520 1523 1525 1527 1530 1532 1534 1537 1538 1540
1489 1486 1481 1475 1469 1467 1474 1473 1471 1476 1476 1475 1474 1473 1472 1471 1470 1469 1469 1469 1470 1471 1472 1473 1475 1478 1480 1483 1486 1490 1493 1496 1499 1502 1505 1507 1509 1511 1514 1517 1519 1521 1524 1526 1528 1530 1533 1535 1537
1489 1487 1486 1483 1476 1473 1471 1472 1474 1476 1474 1473 1472 1472 1471 1471 1470 1470 1469 1469 1469 1470 1471 1472 1474 1476 1478 1481 1484 1486 1489 1492 1495 1498 1501 1504 1506 1508 1511 1513 1515 1518 1520 1522 1524 1526 1528 1531 1533
1494 1490 1487 1483 1478 1471 1468 1468 1470 1475 1474 1474 1473 1472 1472 1472 1470 1470 1469 1469 1469 1469 1470 1470 1472 1474 1476 1478 1481 1483 1486 1489 1492 1495 1497 1500 1502 1505 1507 1509 1511 1514 1516 1518 1520 1522 1524 1526 1528
1496 1494 1489 1484 1481 1473 1468 1471 1478 1479 1478 1477 1475 1474 1473 1472 1471 1470 1470 1469 1469 1469 1469 1470 1471 1472 1474 1476 1478 1480 1483 1486 1488 1491 1494 1496 1498 1501 1503 1505 1507 1509 1511 1514 1516 1517 1519 1521 1523
1501 1499 1495 1489 1486 1480 1472 1479 1483 1483 1481 1479 1478 1476 1474 1473 1472 1471 1470 1470 1469 1469 1469 1469 1469 1470 1471 1473 1475 1478 1480 1482 1485 1487 1490 1492 1495 1497 1499 1501 1503 1505 1507 1509 1511 1513 1515 1517 1518